Probability
13 6 6 10 10 6 6 3 3 3 3 3 3 3 3 3 6 3 10 16 26 16 26 16 16 16 19 23 19 23 23 13 13 13 10 13 13 10 10 13 16 16 10
13 13 6 3 3 3 3 3 3 3 3 3 3 3 3 6 10 3 6 10 23 23 29 19 13 23 26 26 26 19 13 13 10 10 13 13 13 10 13 19 13 13 10
6 6 6 0 0 3 3 3 3 3 3 3 3 3 3 3 10 6 6 10 10 10 16 16 23 16 19 26 23 19 13 13 16 16 13 13 13 10 13 16 16 10 13
6 6 10 3 3 6 3 3 3 3 3 3 3 3 3 3 3 6 6 10 6 6 10 16 16 19 23 23 23 16 13 10 16 19 10 10 13 6 10 13 19 16 13
6 6 6 3 3 3 3 0 3 3 3 3 3 3 3 3 3 6 3 3 6 6 6 6 13 16 19 19 19 13 13 13 16 13 10 6 6 6 13 13 13 13 10
3 3 3 3 3 3 3 0 3 3 3 3 3 3 3 3 3 3 3 6 6 6 3 3 6 6 16 19 19 16 6 13 10 10 6 10 10 6 13 10 10 10 13
6 3 6 6 3 3 3 3 0 0 0 3 3 0 0 0 0 3 3 3 0 6 3 3 3 3 0 10 16 16 6 13 13 10 13 13 13 13 13 13 10 10 6
6 6 10 6 3 3 3 3 0 0 0 0 0 0 0 0 0 3 6 0 0 3 0 0 0 0 0 0 0 10 13 13 10 13 6 10 10 10 13 10 10 10 10
6 6 6 3 3 0 0 0 0 0 0 0 0 0 0 0 0 0 3 3 3 0 0 0 0 3 6 3 0 0 6 13 13 13 10 3 6 10 10 13 10 6 6
3 3 3 3 0 0 3 0 0 0 0 0 0 0 0 0 0 0 3 3 3 0 0 0 0 3 3 3 3 3 3 3 13 13 13 6 6 6 6 6 3 3 3
6 6 3 3 0 0 3 0 0 0 0 0 0 0 0 0 0 0 0 0 3 3 0 0 0 0 3 3 3 0 3 0 6 10 10 3 0 3 3 3 3 3 3
6 3 3 0 0 0 0 3 0 3 0 0 0 0 0 0 0 0 0 0 0 3 3 0 0 0 0 0 3 0 0 0 0 0 6 3 6 3 0 3 3 3 3
6 3 3 6 3 0 3 3 0 0 0 0 0 3 0 0 0 0 0 0 0 0 3 0 0 0 0 0 0 0 0 0 0 0 0 0 3 3 3 3 3 3 0
3 6 6 6 6 3 3 3 3 0 0 3 3 3 3 0 0 0 0 0 0 0 0 0 0 0 0 0 0 0 0 0 0 0 0 0 0 0 0 3 3 0 0
0 0 6 3 3 3 6 6 6 6 3 3 3 3 3 3 3 3 0 0 0 0 0 0 0 0 0 0 0 0 0 0 0 0 0 0 0 0 0 0 0 0 0
0 0 3 3 3 3 6 6 6 3 3 3 3 3 3 3 3 3 0 0 0 0 0 0 0 0 0 0 0 0 0 0 0 0 0 0 0 0 0 0 0 0 0
0 0 0 0 3 3 3 3 6 6 6 6 3 3 3 3 3 3 0 0 0 0 0 0 0 0 0 0 0 0 0 0 0 0 0 0 0 0 0 0 0 0 0
0 0 0 0 0 3 6 6 3 6 6 6 3 3 3 3 3 0 0 0 0 0 0 0 0 0 0 0 0 0 0 0 0 0 0 0 0 0 0 0 0 0 0
0 0 0 0 3 3 3 6 3 3 3 3 3 3 3 3 3 0 0 0 0 0 0 0 0 0 0 0 0 0 0 0 0 0 0 0 0 0 0 0 0 0 0
0 0 0 0 3 3 3 3 6 6 3 3 3 3 3 3 0 0 0 0 0 0 0 0 0 0 0 0 0 0 0 0 0 0 0 0 0 0 0 0 0 0 0
0 0 0 0 0 3 3 3 3 3 3 3 3 3 3 3 3 0 0 0 0 0 0 0 0 0 0 0 0 0 0 0 0 0 0 0 0 0 0 0 0 0 0
0 0 0 0 0 0 0 0 0 0 0 0 0 3 3 3 0 0 0 0 0 0 0 0 0 0 0 0 0 0 0 0 0 0 0 0 0 0 0 0 0 0 0
0 0 0 0 0 0 0 0 0 0 0 0 0 0 0 0 0 0 0 0 0 0 0 0 0 0 0 0 0 0 0 0 0 0 0 0 0 0 0 0 0 0 0
0 0 0 0 0 0 0 0 0 0 0 0 0 0 0 0 0 0 0 0 0 0 0 0 0 0 0 0 0 0 0 0 0 0 0 0 0 0 0 0 0 0 0
0 0 0 0 0 0 0 0 0 0 0 0 0 0 0 0 0 0 0 0 0 0 0 0 0 0 0 0 0 0 0 0 0 0 0 0 0 0 0 0 0 0 0
0 0 0 0 0 0 0 0 0 0 0 0 0 0 0 0 0 0 0 0 0 0 0 0 0 0 0 0 0 0 0 0 0 0 0 0 0 0 0 0 0 0 0
Height
5837 5837 5836 5836 5836 5836 5836 5836 5836 5836 5836 5837 5837 5837 5838 5838 5839 5839 5840 5840 5841 5841 5842 5842 5843 5843 5844 5844 5844 5843 5843 5841 5840 5838 5839 5840 5843 5846 5848 5850 5851 5852 5853
5835 5834 5834 5833 5833 5833 5833 5833 5833 5833 5833 5834 5834 5835 5835 5836 5836 5837 5837 5838 5838 5839 5839 5840 5840 5841 5841 5841 5841 5841 5840 5839 5838 5837 5838 5839 5841 5844 5846 5847 5848 5849 5850
5833 5832 5832 5831 5830 5830 5830 5830 5830 5830 5830 5831 5831 5832 5832 5833 5834 5834 5835 5835 5836 5836 5837 5837 5837 5838 5838 5838 5838 5838 5838 5837 5837 5837 5837 5838 5840 5841 5843 5844 5845 5846 5847
5830 5829 5829 5828 5828 5827 5827 5827 5827 5827 5827 5828 5828 5829 5830 5830 5831 5832 5832 5833 5833 5834 5834 5834 5835 5835 5835 5836 5836 5836 5836 5836 5836 5835 5836 5837 5838 5839 5840 5841 5842 5843 5844
5828 5827 5826 5825 5825 5825 5824 5824 5824 5825 5825 5825 5825 5826 5827 5827 5828 5829 5830 5830 5831 5831 5831 5831 5832 5832 5833 5833 5833 5833 5833 5833 5834 5834 5834 5835 5836 5837 5838 5839 5840 5841 5841
5825 5824 5824 5823 5822 5822 5822 5822 5822 5822 5822 5822 5823 5823 5824 5825 5825 5826 5827 5827 5828 5828 5828 5828 5829 5829 5830 5830 5830 5831 5831 5831 5832 5832 5832 5833 5834 5835 5835 5836 5837 5837 5838
5822 5822 5821 5820 5820 5819 5819 5819 5819 5819 5820 5820 5820 5821 5821 5822 5822 5823 5823 5824 5825 5825 5825 5825 5826 5826 5827 5827 5828 5828 5829 5829 5830 5830 5830 5831 5832 5832 5833 5833 5834 5834 5835
5820 5819 5818 5818 5817 5817 5817 5817 5817 5817 5817 5817 5818 5818 5818 5819 5819 5820 5821 5821 5821 5822 5822 5822 5823 5823 5824 5825 5825 5826 5826 5827 5827 5827 5828 5829 5829 5830 5830 5830 5831 5831 5832
5817 5816 5815 5815 5814 5814 5814 5814 5814 5814 5815 5815 5815 5815 5815 5816 5816 5817 5817 5817 5818 5818 5819 5819 5820 5820 5821 5822 5822 5823 5824 5824 5824 5825 5825 5826 5826 5827 5827 5828 5828 5829 5829
5813 5813 5812 5812 5812 5811 5811 5811 5811 5811 5811 5812 5812 5812 5812 5812 5813 5813 5814 5814 5814 5815 5815 5816 5817 5817 5818 5819 5820 5820 5821 5821 5822 5822 5822 5823 5824 5824 5825 5825 5825 5826 5826
5810 5809 5809 5809 5808 5808 5808 5808 5808 5808 5808 5808 5808 5808 5808 5808 5809 5810 5810 5811 5811 5811 5812 5813 5813 5814 5815 5816 5817 5817 5818 5818 5819 5819 5820 5820 5821 5821 5822 5822 5822 5823 5822
5806 5806 5805 5805 5805 5804 5804 5804 5804 5804 5805 5805 5804 5804 5804 5804 5805 5806 5806 5807 5808 5808 5808 5809 5810 5810 5811 5812 5813 5814 5814 5815 5816 5816 5817 5817 5817 5818 5818 5819 5819 5819 5819
5803 5802 5801 5801 5801 5800 5800 5800 5800 5801 5801 5800 5800 5800 5800 5800 5801 5801 5802 5803 5803 5804 5804 5805 5805 5806 5807 5808 5809 5810 5810 5811 5812 5812 5813 5813 5814 5814 5815 5815 5815 5815 5815
5798 5798 5797 5797 5796 5796 5796 5796 5796 5796 5796 5796 5796 5796 5796 5796 5796 5796 5797 5798 5798 5799 5800 5801 5801 5802 5803 5803 5804 5805 5806 5807 5807 5808 5809 5809 5810 5811 5811 5811 5811 5811 5812
5794 5793 5793 5792 5792 5791 5791 5791 5791 5791 5791 5791 5791 5791 5791 5791 5791 5792 5792 5793 5794 5794 5795 5796 5797 5797 5798 5799 5800 5801 5802 5802 5803 5804 5804 5805 5806 5806 5807 5807 5807 5807 5808
5789 5789 5788 5787 5787 5786 5786 5786 5786 5786 5786 5786 5786 5786 5786 5786 5786 5787 5787 5788 5788 5789 5790 5791 5792 5792 5793 5794 5795 5796 5797 5797 5798 5799 5800 5800 5801 5801 5802 5803 5803 5803 5803
5784 5783 5782 5782 5781 5781 5781 5780 5780 5780 5780 5780 5780 5780 5781 5781 5781 5782 5782 5782 5783 5784 5785 5786 5786 5787 5788 5788 5789 5790 5791 5792 5793 5794 5795 5796 5796 5797 5797 5798 5798 5798 5799
5778 5777 5776 5775 5775 5775 5774 5774 5774 5774 5774 5774 5775 5775 5775 5775 5776 5776 5776 5777 5777 5778 5779 5780 5781 5782 5782 5783 5784 5785 5786 5787 5788 5789 5790 5790 5791 5792 5792 5793 5793 5794 5794
5771 5770 5769 5769 5768 5768 5768 5768 5768 5768 5768 5768 5769 5769 5769 5769 5770 5770 5771 5771 5772 5772 5773 5774 5775 5776 5777 5778 5778 5779 5780 5782 5783 5784 5784 5785 5786 5786 5787 5788 5788 5789 5789
5764 5764 5763 5762 5761 5761 5761 5761 5761 5761 5761 5762 5762 5762 5763 5763 5763 5764 5764 5765 5766 5766 5767 5767 5769 5769 5771 5771 5772 5773 5775 5776 5777 5778 5779 5779 5780 5781 5781 5782 5782 5783 5783
5758 5757 5756 5755 5755 5754 5754 5754 5754 5754 5755 5755 5755 5756 5756 5757 5757 5757 5758 5758 5759 5760 5760 5761 5762 5763 5764 5765 5766 5767 5768 5769 5771 5772 5773 5773 5774 5775 5775 5776 5776 5776 5777
5751 5750 5749 5749 5748 5748 5747 5747 5747 5747 5747 5748 5748 5748 5749 5750 5750 5750 5751 5751 5752 5753 5753 5754 5755 5756 5757 5758 5759 5760 5762 5763 5765 5766 5766 5767 5768 5768 5769 5769 5769 5770 5770
5743 5743 5742 5741 5741 5740 5740 5740 5739 5740 5740 5740 5740 5741 5742 5742 5742 5743 5743 5744 5744 5745 5746 5747 5748 5749 5750 5751 5752 5754 5755 5756 5757 5758 5759 5760 5761 5761 5762 5762 5762 5763 5764
5737 5736 5735 5734 5734 5733 5733 5732 5732 5732 5732 5732 5732 5733 5734 5734 5735 5735 5736 5736 5737 5737 5738 5739 5741 5742 5742 5743 5745 5746 5747 5749 5750 5751 5752 5753 5754 5754 5755 5755 5755 5756 5756
5729 5728 5727 5726 5726 5725 5725 5724 5724 5724 5724 5724 5724 5725 5726 5726 5727 5727 5727 5728 5728 5729 5730 5731 5732 5733 5734 5735 5737 5738 5740 5741 5742 5743 5744 5745 5746 5746 5747 5747 5748 5748 5748
5720 5719 5719 5718 5717 5717 5716 5716 5716 5716 5716 5716 5716 5717 5717 5717 5718 5718 5718 5719 5720 5721 5722 5723 5723 5725 5726 5727 5728 5730 5731 5732 5734 5735 5736 5737 5738 5738 5739 5740 5740 5740 5740
Wind_Speed
12 12 12 11 11 12 12 13 13 13 14 14 13 13 12 12 13 13 13 13 13 13 13 14 14 14 14 14 14 13 13 13 13 14 14 14 15 15 15 15 14 15 14
12 12 12 12 12 12 12 12 13 13 13 13 14 14 13 12 12 12 12 12 12 13 13 14 13 13 13 13 12 12 12 12 11 11 11 12 13 13 14 14 13 14 14
12 12 12 12 13 13 13 13 13 13 13 14 14 14 14 13 13 12 12 12 12 13 12 12 12 11 11 12 12 12 12 11 10 10 11 11 12 13 13 14 14 14 14
12 12 12 13 13 14 14 14 13 13 13 13 13 14 14 13 13 13 13 12 12 12 11 11 11 11 12 12 11 11 11 11 10 10 11 11 11 12 13 13 13 13 13
12 12 12 13 13 14 13 12 12 12 12 12 12 13 14 14 14 14 13 13 13 12 12 12 12 12 12 12 11 11 11 10 10 10 10 11 11 11 10 12 13 13 13
13 12 13 13 13 13 13 12 12 12 12 12 12 12 13 14 14 14 14 13 13 13 13 12 13 12 12 12 11 11 10 10 9 10 10 9 10 10 11 11 12 13 14
13 13 13 13 14 14 13 12 12 12 12 11 11 12 13 13 13 13 13 13 13 13 13 13 13 12 12 12 11 11 10 10 10 10 10 10 10 10 11 12 13 13 13
13 13 13 13 14 13 13 13 13 12 12 12 12 13 12 13 13 13 13 13 13 13 13 13 12 12 12 12 11 11 11 11 11 11 10 10 10 10 11 11 11 12 12
14 14 14 14 13 13 13 13 13 13 13 13 13 13 13 13 13 14 14 14 13 13 13 12 12 12 13 12 12 12 11 12 11 11 11 10 10 10 11 11 11 12 11
15 15 15 15 14 14 14 13 13 13 14 14 14 14 14 14 14 14 14 13 13 13 13 13 13 13 12 12 12 12 12 12 12 11 11 10 11 11 11 11 11 11 11
15 15 15 15 15 14 14 13 13 13 14 14 14 14 14 15 15 14 14 14 14 14 14 14 14 14 14 13 13 13 13 13 12 12 12 12 12 12 12 12 12 12 12
16 16 16 15 15 15 15 14 14 14 14 15 15 15 15 16 16 16 16 16 15 15 15 15 15 15 15 15 14 14 14 14 14 13 14 14 13 13 13 13 13 12 12
16 16 17 16 16 16 15 15 14 15 15 15 15 16 16 17 17 18 18 17 17 17 16 16 16 16 16 15 15 15 14 15 15 14 14 14 14 14 14 14 14 13 13
17 16 16 17 17 17 17 16 16 16 16 16 17 17 17 17 18 18 18 18 18 17 17 16 16 16 16 16 16 15 15 15 15 15 15 15 16 16 16 16 15 14 14
18 18 17 17 17 17 18 18 18 18 18 18 18 18 18 18 18 18 18 19 19 18 17 17 17 17 17 17 17 17 16 16 16 16 16 16 16 17 16 16 16 16 15
19 19 19 19 19 19 19 19 20 20 19 19 19 19 19 19 18 18 19 19 19 20 19 18 18 18 18 18 18 18 17 17 16 16 16 17 16 17 16 16 16 16 16
21 21 20 20 20 20 20 20 20 20 20 20 19 20 20 19 19 19 19 20 20 20 20 19 19 18 19 19 19 19 18 17 16 16 16 16 16 16 16 16 16 16 17
22 22 22 21 21 21 21 21 21 21 21 20 20 20 20 20 20 20 20 19 20 20 20 20 19 19 18 19 19 19 19 18 18 17 17 17 17 16 16 16 17 17 17
22 23 23 22 21 21 21 21 22 22 22 21 21 20 20 21 20 20 19 19 20 21 21 21 20 20 20 20 20 20 19 20 19 19 18 18 18 18 18 18 18 18 18
23 23 23 22 22 23 23 22 22 22 23 23 22 21 21 21 21 21 21 21 21 21 22 22 23 22 21 21 21 21 20 20 20 20 20 20 20 20 19 19 20 19 19
24 23 23 23 23 23 23 22 22 23 23 23 23 22 22 22 22 22 22 22 22 22 22 23 23 22 21 21 20 20 20 20 21 21 21 21 21 21 21 20 20 20 20
24 23 23 23 23 23 23 23 23 23 23 23 24 24 23 23 23 23 23 23 22 23 23 23 23 22 22 22 21 21 21 21 21 21 21 22 22 22 22 21 20 20 20
23 24 24 24 24 24 24 24 24 24 25 24 24 25 24 24 23 23 24 24 24 23 23 24 24 23 23 23 24 23 22 22 22 23 23 23 23 23 23 22 22 21 22
24 25 25 25 25 24 24 25 26 26 25 25 25 25 25 25 25 25 25 25 25 25 25 24 24 24 24 24 24 24 23 23 23 24 24 23 23 24 23 23 24 23 23
26 26 26 26 26 26 26 26 26 26 26 25 25 25 26 26 26 26 26 26 26 26 26 26 25 25 25 25 25 25 25 24 24 24 24 24 24 24 24 24 24 24 24
26 26 26 26 26 26 27 27 27 26 26 26 26 26 26 26 27 27 27 27 27 27 27 27 26 26 27 27 27 27 26 26 25 25 25 25 25 24 24 24 25 25 25
Wind_Direction
293 288 288 284 279 277 277 277 277 274 272 267 264 262 262 261 261 260 259 261 264 265 264 262 263 265 267 269 269 268 271 274 271 263 258 250 248 249 252 254 255 259 259
294 291 290 286 280 279 279 279 277 273 271 266 260 258 260 263 263 264 260 260 262 265 264 264 263 265 266 268 270 271 273 272 267 260 254 247 244 245 250 255 256 258 257
294 292 289 286 282 282 281 280 277 276 272 267 262 259 259 261 263 263 262 262 263 264 263 264 266 264 266 269 271 272 273 271 266 261 254 250 248 249 251 254 256 255 259
297 295 291 288 287 284 282 283 279 277 275 272 266 262 260 261 263 265 264 264 267 266 264 265 266 265 264 267 268 269 268 268 267 262 255 252 251 251 253 253 254 257 260
299 296 293 292 291 288 284 283 279 277 276 273 269 265 261 262 263 264 266 264 265 267 268 266 263 265 265 266 266 269 266 264 264 260 258 257 257 255 259 258 256 259 259
299 297 296 295 292 289 285 284 280 277 276 273 272 270 265 264 263 262 262 263 263 268 269 269 265 262 263 264 264 265 265 262 263 260 259 259 262 261 262 262 262 263 261
298 297 296 295 293 290 286 282 280 278 275 271 271 270 269 265 263 262 261 262 266 268 269 270 267 263 261 261 261 261 262 261 262 262 260 261 264 266 264 264 263 262 260
296 297 297 296 293 290 286 282 280 276 272 269 270 270 269 265 264 263 262 265 267 269 269 270 267 262 260 262 262 260 260 259 257 258 259 258 262 265 264 264 263 262 261
290 292 295 295 293 288 287 284 279 275 271 271 272 272 271 268 264 263 263 263 265 267 265 267 267 264 262 262 262 260 260 260 260 256 257 261 263 263 263 264 262 264 267
289 289 291 290 288 286 286 282 278 276 273 272 272 275 273 268 262 260 262 261 263 264 263 262 263 265 265 264 263 264 263 264 260 262 263 264 268 266 269 269 269 270 272
289 287 287 286 285 283 282 280 278 277 275 274 273 273 272 268 263 260 261 262 262 264 262 261 261 263 263 262 264 264 263 264 262 262 263 264 268 267 269 269 267 267 269
288 287 286 285 283 280 278 278 278 277 277 276 278 278 273 268 264 262 261 262 261 264 264 263 260 261 262 260 260 261 262 264 262 262 263 265 265 265 264 266 265 264 267
288 287 285 286 282 277 276 277 277 278 276 276 278 279 276 269 267 264 263 262 263 263 263 262 261 260 261 259 260 260 262 263 262 262 263 264 266 266 265 264 264 264 265
288 288 285 285 282 276 276 277 278 279 276 277 279 278 276 272 269 267 265 263 261 263 262 261 261 261 262 261 260 261 262 261 262 261 261 263 266 265 266 263 263 264 264
286 285 283 283 281 277 275 276 276 277 277 278 277 276 273 271 269 267 265 265 262 261 264 263 262 261 262 262 261 261 261 261 263 263 262 263 263 265 264 264 263 264 266
284 283 282 282 281 278 276 275 275 277 278 279 277 275 273 271 269 267 266 265 264 263 265 265 264 262 262 261 260 259 261 263 265 265 264 264 264 265 263 265 264 266 267
285 283 282 281 281 278 276 276 277 278 278 277 276 274 272 271 270 270 268 267 266 265 264 264 264 264 262 260 260 260 260 262 264 265 265 265 263 264 264 266 265 266 266
285 284 283 280 280 279 278 277 276 277 276 276 274 274 271 270 270 272 269 268 267 266 265 263 264 264 265 263 261 261 262 262 264 264 262 262 263 265 265 266 263 263 264
283 283 283 279 278 277 277 278 277 276 275 274 273 273 271 270 271 270 268 267 267 267 267 264 263 264 265 264 263 263 262 261 262 262 263 263 263 264 264 265 263 261 263
284 283 282 279 277 276 276 277 276 275 274 272 271 271 271 270 270 270 268 267 268 269 268 264 263 262 262 262 264 264 261 260 260 261 263 263 263 264 262 265 263 261 261
284 284 281 278 277 275 276 276 275 274 273 271 270 270 270 271 271 270 269 269 269 268 266 264 263 262 262 262 263 264 263 262 260 260 262 262 262 264 263 264 264 263 261
283 282 281 279 278 276 276 276 274 274 273 271 269 270 270 271 270 269 268 267 268 266 264 262 262 262 263 263 264 264 263 263 262 261 261 262 263 263 263 263 266 265 262
282 282 283 280 279 278 277 276 275 274 272 271 269 268 269 269 268 268 268 266 266 265 263 261 261 262 263 264 264 264 263 262 263 264 263 263 264 264 264 262 263 264 263
279 281 282 280 279 278 277 277 274 273 273 272 269 267 268 267 266 268 267 265 264 264 263 262 262 262 262 263 263 262 262 263 263 264 264 263 263 264 263 263 263 264 264
278 280 280 279 278 278 278 277 276 274 272 271 270 267 267 267 267 267 266 265 263 262 261 261 261 262 263 264 263 262 261 263 263 263 265 264 263 264 263 262 262 264 265
279 281 281 279 279 278 279 278 276 274 272 270 270 269 268 267 268 267 266 264 263 261 261 261 261 262 262 262 262 261 261 262 263 263 263 262 262 264 264 263 263 263 264